Ardmore, OK

3:11 PM CDT on May 23, 2017 (GMT -0500)
Ardmore Municipal

Weather History for KADM - July, 2013

Change the Weather History Date:

Saturday, July 6, 2013

  Actual Average Record
Temperature  
Mean Temperature 80 °F -  
Max Temperature 97 °F 91 °F 105 °F (1996)
Min Temperature 65 °F 71 °F 64 °F (2004)
Cooling Degree Days 15    
Growing Degree Days 30 (Base 50)    
Moisture  
Dew Point 59 °F    
Average Humidity 60    
Maximum Humidity 79    
Minimum Humidity 30    
Precipitation  
Precipitation 0.00 in - - ()
Sea Level Pressure  
Sea Level Pressure 29.94 in    
Wind  
Wind Speed 4 mph (ESE)    
Max Wind Speed 9 mph    
Max Gust Speed 17 mph    
Visibility 10 miles    
Events      
Averages and records for this station are not official NWS values.
T = Trace of Precipitation, MM = Missing Value Source: NWS Daily Summary

Daily Weather History Graph

Daily Weather History Graph

Search for Another Location

Airport or City:

Trip Planner

Search our weather history database for the weather conditions in past years. The results will help you decide how hot, cold, wet, or windy it might be!

Date:

Astronomy

Jul. 06, 2013 Rise Set
Actual Time 6:22 AM CDT 8:43 PM CDT
Civil Twilight 5:53 AM CDT 9:12 PM CDT
Nautical Twilight 5:17 AM CDT 9:48 PM CDT
Astronomical Twilight 4:38 AM CDT 10:27 PM CDT
Moon 5:06 AM CDT (7/6) 7:28 PM CDT (7/6)
Length of Visible Light 15h 19m
Length of Day
14h 21m
Waning Crescent, 2% of the Moon is Illuminated
Jul 6
Waning Crescent
Jul 8
New
Jul 15
First Quarter
Jul 22
Full
Jul 29
Last Quarter

Hourly Weather History & Observations

Time (CDT) Temp. Heat Index Dew Point Humidity Pressure Visibility Wind Dir Wind Speed Gust Speed Precip Events Conditions
12:15 AM 77.5 °F - 58.5 °F 52% 29.94 in 10.0 mi SE 4.6 mph - N/A   Clear
12:35 AM 77.0 °F - 58.5 °F 53% 29.94 in 10.0 mi SE 5.8 mph - N/A   Clear
12:55 AM 76.1 °F - 58.3 °F 54% 29.94 in 10.0 mi SE 4.6 mph - N/A   Clear
1:15 AM 75.4 °F - 58.3 °F 55% 29.94 in 10.0 mi ESE 5.8 mph - N/A   Clear
1:35 AM 74.8 °F - 58.8 °F 57% 29.94 in 10.0 mi ESE 3.5 mph - N/A   Clear
1:55 AM 73.4 °F - 59.0 °F 61% 29.94 in 10.0 mi ESE 4.6 mph - N/A   Clear
2:15 AM 73.2 °F - 58.8 °F 61% 29.94 in 10.0 mi ESE 3.5 mph - N/A   Clear
2:35 AM 71.8 °F - 59.2 °F 64% 29.94 in 10.0 mi ESE 3.5 mph - N/A   Clear
2:55 AM 71.1 °F - 59.4 °F 66% 29.94 in 10.0 mi ESE 3.5 mph - N/A   Clear
3:15 AM 70.3 °F - 59.4 °F 68% 29.94 in 10.0 mi East 3.5 mph - N/A   Clear
3:35 AM 70.2 °F - 59.2 °F 68% 29.94 in 10.0 mi East 4.6 mph - N/A   Clear
3:55 AM 70.2 °F - 59.0 °F 68% 29.94 in 10.0 mi East 4.6 mph - N/A   Clear
4:15 AM 70.0 °F - 58.3 °F 66% 29.94 in 10.0 mi Calm Calm - N/A   Clear
4:35 AM 70.3 °F - 58.3 °F 66% 29.94 in 10.0 mi ESE 3.5 mph - N/A   Clear
4:55 AM 68.9 °F - 57.9 °F 68% 29.94 in 10.0 mi Calm Calm - N/A   Clear
5:15 AM 67.6 °F - 56.7 °F 68% 29.94 in 10.0 mi Calm Calm - N/A   Clear
5:35 AM 67.5 °F - 57.4 °F 70% 29.94 in 10.0 mi ESE 3.5 mph - N/A   Clear
5:55 AM 66.9 °F - 57.2 °F 71% 29.94 in 10.0 mi East 3.5 mph - N/A   Clear
6:15 AM 65.7 °F - 58.8 °F 79% 29.94 in 10.0 mi Calm Calm - N/A   Clear
6:35 AM 66.2 °F - 58.3 °F 76% 29.94 in 10.0 mi Calm Calm - N/A   Clear
7:55 AM 75.2 °F - 62.6 °F 65% 29.96 in 10.0 mi Calm Calm - N/A   Clear
9:55 AM 86.0 °F 86.6 °F 62.6 °F 45% 29.95 in 10.0 mi South 5.8 mph - N/A   Clear
10:55 AM 89.6 °F 89.5 °F 60.8 °F 38% 29.95 in 10.0 mi South 6.9 mph - N/A   Clear
12:55 PM 95.0 °F 94.4 °F 59.0 °F 30% 29.93 in 10.0 mi SSE 9.2 mph 17.3 mph N/A   Clear
1:55 PM 95.0 °F 94.4 °F 59.0 °F 30% 29.93 in 10.0 mi SSE 9.2 mph 17.3 mph N/A   Clear
11:35 PM 76.1 °F - 58.5 °F 54% 29.96 in 10.0 mi SE 4.6 mph - N/A   Clear
11:55 PM 75.7 °F - 59.0 °F 56% 29.96 in 10.0 mi SE 5.8 mph - N/A   Clear